Flag for Germany Weather past 2 weeks in Jena, Thuringia, Germany

Now
39 °F

Clear.


Feels Like: 32 °F
Forecast: 34 / 62 °F
Wind: 12 mph from Northwest

Location: Erfurt-Bindersleben

Current Time: Apr 22, 2015 at 4:43:42 AM

Latest Report: Apr 22, 2015 at 4:20 AM


Visibility: 10 mi

Pressure: 30.30 "Hg

Humidity: 87%

Dew point: 36 °F

Location of JenaLocation

Historic Weather in Jena — Graph

°F

Jena temperature yesterday

Maximum temperature yesterday: 68 °F (at 2:20 PM)
Minimum temperature yesterday: 36 °F (at 6:50 AM)
Average temperature yesterday: 54 °F

Past Weeks' High & Low Weather Summary

 TemperatureHumidityPressure
High73 °F (Apr 15, 3:50 PM)93% (Apr 7, 5:50 AM)30.57 "Hg (Apr 7, 5:50 AM)
Low25 °F (Apr 7, 6:50 AM)21% (Apr 21, 6:20 PM)29.92 "Hg (Apr 15, 6:50 PM)
Average50 °F61%30.24 "Hg
* Reported Apr 7 3:20 AM — Apr 22 3:20 AM, Jena, Weather by CustomWeather, © 2015

Note: Actual official high and low records may vary slightly from our data, if they occured in-between our weather recording intervals... More about our weather records

Advertising

Jena weather history for previous 24 hours

 ConditionsComfort  
Time TempWeatherWind HumidityBarometerVisibility
3:20 AM
Wed, Apr 22
41 °FClear.10 mph81%30.33 "Hg10 mi
2:50 AM41 °FClear.10 mph76%30.33 "Hg10 mi
2:20 AM41 °FClear.9 mph76%30.33 "Hg10 mi
1:50 AM45 °FClear.7 mph66%30.33 "Hg10 mi
1:20 AM46 °FClear.10 mph62%30.33 "Hg10 mi
12:50 AM48 °FClear.9 mph58%30.33 "Hg10 mi
12:20 AM50 °FClear.10 mph58%30.33 "Hg10 mi
11:50 PM
Tue, Apr 21
50 °FClear.9 mph62%30.33 "Hg10 mi
11:20 PM50 °FClear.9 mph58%30.33 "Hg10 mi
10:50 PM52 °FClear.9 mph54%30.33 "Hg10 mi
10:20 PM54 °FClear.12 mph51%30.33 "Hg10 mi
9:50 PM55 °FClear.13 mph44%30.33 "Hg10 mi
9:20 PM55 °FClear.14 mph41%30.33 "Hg10 mi
8:50 PM55 °FSunny.13 mph41%30.30 "Hg10 mi
8:20 PM57 °FSunny.12 mph33%30.30 "Hg10 mi
7:50 PM59 °FSunny.13 mph29%30.30 "Hg10 mi
7:20 PM63 °FSunny.14 mph25%30.30 "Hg10 mi
6:50 PM64 °FSunny.13 mph22%30.30 "Hg10 mi
6:20 PM66 °FSunny.16 mph21%30.30 "Hg10 mi
5:50 PM66 °FSunny.17 mph24%30.30 "Hg10 mi
5:20 PM68 °FSunny.16 mph26%30.30 "Hg10 mi
4:50 PM68 °FSunny.17 mph26%30.30 "Hg10 mi
4:20 PM68 °FSunny.15 mph30%30.30 "Hg10 mi
3:50 PM68 °FSunny.17 mph28%30.33 "Hg10 mi
3:20 PM68 °FSunny.16 mph28%30.33 "Hg10 mi
2:50 PM68 °FSunny.17 mph30%30.33 "Hg10 mi
2:20 PM68 °FSunny.17 mph26%30.33 "Hg10 mi
1:50 PM66 °FSunny.16 mph28%30.33 "Hg10 mi
1:20 PM66 °FSunny.14 mph24%30.36 "Hg10 mi
12:50 PM64 °FSunny.12 mph32%30.36 "Hg10 mi
12:20 PM63 °FSunny.13 mph25%30.36 "Hg10 mi
11:50 AM61 °FSunny.9 mph36%30.36 "Hg10 mi
11:20 AM59 °FSunny.7 mph39%30.36 "Hg10 mi
10:50 AM57 °FSunny.9 mph44%30.36 "Hg10 mi
10:20 AM55 °FSunny.10 mph47%30.36 "Hg10 mi
9:50 AM54 °FSunny.8 mph54%30.36 "Hg10 mi
9:20 AM50 °FSunny.8 mph62%30.36 "Hg10 mi
8:50 AM48 °FSunny.8 mph71%30.39 "Hg10 mi
8:20 AM45 °FSunny.8 mph76%30.36 "Hg10 mi
7:50 AM43 °FSunny.7 mph76%30.36 "Hg10 mi
7:20 AM41 °FSunny.8 mph81%30.36 "Hg10 mi
6:50 AM36 °FClear.9 mph93%30.36 "Hg10 mi
6:20 AM39 °FClear.5 mph75%30.36 "Hg10 mi
5:20 AM41 °FClear.5 mph70%30.36 "Hg10 mi
4:50 AM43 °FClear.5 mph66%30.36 "Hg10 mi
4:20 AM41 °FClear.5 mph70%30.36 "Hg10 mi
Weather by CustomWeather, © 2015

See weather overviewHow to use our weather pages